Flag for Canada Weather past 2 weeks in Granby, Quebec, Canada

Now
63 °F

Mild.


Feels Like: 63 °F
Forecast: 58 / 69 °F
Wind: 5 mph from South

Location: Frelighsburg

Current Time: Jul 1, 2015 at 3:55:20 PM

Latest Report: Jul 1, 2015 at 3:00 PM


Visibility: N/A

Pressure: 29.62 "Hg

Humidity: 99%

Dew point: 63 °F

Location of GranbyLocation

Historic Weather in Granby — Graph

°F

Granby temperature yesterday

Maximum temperature yesterday: 74 °F (at 1:00 PM)
Minimum temperature yesterday: 55 °F (at 5:00 AM)
Average temperature yesterday: 63 °F

Past Weeks' High & Low Weather Summary

 TemperatureHumidityPressure
High78 °F (Jun 23, 4:00 PM)100% (Jun 16, 7:00 PM)30.20 "Hg (Jun 16, 7:00 PM)
Low48 °F (Jun 17, 5:00 AM)38% (Jun 20, 2:00 PM)29.57 "Hg (Jun 23, 5:00 PM)
Average63 °F77%29.92 "Hg
* Reported Jun 16 3:00 PM — Jul 1 3:00 PM, Granby, Weather by CustomWeather, © 2015

Note: Actual official high and low records may vary slightly from our data, if they occured in-between our weather recording intervals... More about our weather records

Advertising

Granby weather history for previous 24 hours

 ConditionsComfort  
Time TempWeatherWind HumidityBarometerVisibility
3:00 PM
Wed, Jul 1
63 °FMild.5 mph99%29.62 "HgN/A
2:00 PM63 °FMild.8 mph99%29.63 "HgN/A
1:00 PM64 °FMild.7 mph97%29.63 "HgN/A
12:00 PM63 °FMild.6 mph98%29.66 "HgN/A
11:00 AM63 °FMild.7 mph98%29.67 "HgN/A
10:00 AM63 °FMild.6 mph89%29.69 "HgN/A
9:00 AM63 °FMild.6 mph89%29.71 "HgN/A
8:00 AM62 °FCool.6 mph97%29.71 "HgN/A
7:00 AM62 °FCool.7 mph98%29.72 "HgN/A
6:00 AM62 °FMild.7 mph93%29.75 "HgN/A
5:00 AM64 °FMild.7 mph88%29.75 "HgN/A
4:00 AM63 °FMild.7 mph88%29.77 "HgN/A
3:00 AM63 °FMild.6 mph88%29.79 "HgN/A
2:00 AM63 °FMild.7 mph87%29.81 "HgN/A
1:00 AM64 °FMild.7 mph86%29.83 "HgN/A
12:00 AM62 °FCool.7 mph90%29.84 "HgN/A
11:00 PM
Tue, Jun 30
62 °FCool.6 mph87%29.86 "HgN/A
10:00 PM61 °FCool.6 mph88%29.88 "HgN/A
9:00 PM60 °FCool.3 mph91%29.88 "HgN/A
8:00 PM62 °FCool.3 mph89%29.89 "HgN/A
7:00 PM64 °FMild.5 mph94%29.90 "HgN/A
6:00 PM64 °FMild.5 mph94%29.91 "HgN/A
5:00 PM66 °FMild.5 mph88%29.92 "HgN/A
4:00 PM71 °FMild.1 mph76%29.92 "HgN/A
3:00 PM73 °FMild.2 mph60%29.93 "HgN/A
Weather by CustomWeather, © 2015

See weather overviewHow to use our weather pages